Location: Vancouver
(49.2500°N, 123.1333°W)
Time: 00:25:13
(UTC-08:00)

Daily predictions for brighter satellites

Satellite Brightness Start Highest point End
(mag) Time Altitude Azimuth Time Altitude Azimuth Time Altitude Azimuth
SL-16 R/B 4.1 03:47:25 25° ESE 03:47:32 25° ESE 03:52:05 10° NE
CENTAUR R/B 3.4 04:00:01 46° ESE 04:00:01 46° ESE 04:06:08 10° NE
CZ-4C R/B 4.2 04:04:59 22° NNE 04:04:59 22° NNE 04:08:18 10° NE
Cosmos 2237 Rocket 3.5 04:20:17 32° NNE 04:20:17 32° NNE 04:23:10 10° NNE
ATLAS 3B R/B 4.1 04:18:54 28° N 04:18:54 28° N 04:23:41 10° NE
ADEOS II 3.7 04:24:11 10° NNE 04:26:31 27° NNE 04:26:31 27° NNE
NOSS 3-2 (C) 4.2 04:31:17 44° N 04:31:17 44° N 04:36:31 10° NE
Meteor 1-18 Rocket 4.5 04:37:33 63° NNE 04:38:18 71° ENE 04:44:13 10° SSE
Cosmos 2369 Rocket 3.7 04:39:34 24° N 04:41:53 32° NE 04:46:59 10° ESE
Cosmos 2056 Rocket 4.3 04:42:52 42° NNE 04:43:47 46° ENE 04:48:42 10° SE
Lacrosse 5 rocket 3.2 04:50:50 25° NE 04:50:50 25° NE 04:52:52 10° NE
Cosmos 2219 Rocket 3.6 04:57:24 25° N 04:57:24 25° N 05:00:09 10° NNE
ATLAS 5 CENTAUR R/B 3.9 04:56:40 19° N 04:56:40 19° N 05:00:07 10° NE
NOSS 3-2 (A) 4.3 04:56:47 37° NNW 04:56:47 37° NNW 05:02:47 10° NE
Cosmos 1624 Rocket 4.3 04:56:36 50° N 04:57:46 63° ENE 05:03:02 10° SE
USA 32 4.1 04:57:58 46° N 04:59:33 78° E 05:04:48 10° S
Cosmos 923 Rocket 3.9 05:00:41 79° N 05:00:41 79° N 05:05:41 10° NNE
Cosmos 1536 Rocket 4.2 05:02:00 52° SSE 05:02:00 52° SSE 05:05:24 10° SSE
Cosmos 1709 Rocket 4.3 05:03:30 46° NNW 05:03:30 46° NNW 05:08:09 10° N
Cosmos 1371 Rocket 4.0 05:01:36 69° N 05:02:14 81° ENE 05:07:31 10° SSE
Cosmos 2333 Rocket 3.2 05:09:28 31° N 05:09:28 31° N 05:12:57 10° NNE
Tiangong 2 3.7 05:10:59 18° SE 05:10:59 18° SE 05:12:23 10° ESE
Okean 1 4.3 05:17:54 38° S 05:17:54 38° S 05:20:28 10° S
Meteor 1-14 Rocket 4.1 05:17:45 58° WSW 05:18:17 61° WNW 05:23:49 10° N
Cosmos 921 Rocket 3.8 05:21:48 41° SSW 05:21:48 41° SSW 05:24:57 10° S
Okean 1 Rocket 4.3 05:20:42 10° SSE 05:24:51 42° E 05:28:59 10° NNE
USA 215 3.6 05:19:09 10° ENE 05:25:39 64° SE 05:31:32 13° SW
Cosmos 1680 Rocket 3.4 05:26:55 44° SW 05:28:28 67° WNW 05:33:42 10° NNE
COSMO-SKYMED 1 2.4 05:26:29 10° S 05:30:49 74° WSW 05:31:33 59° NW
SL-16 R/B 2.1 05:29:23 41° WSW 05:31:15 62° WNW 05:36:53 10° NNE
Cosmos 1943 Rocket 3.5 05:27:25 14° NNW 05:31:39 35° NE 05:36:40 10° ESE
Okean 1-7 Rocket 4.0 05:28:45 14° N 05:32:31 60° ENE 05:36:50 10° SSE
Cosmos 1346 Rocket 3.3 05:34:15 44° SSW 05:34:15 44° SSW 05:37:08 10° S
Cosmos 1452 Rocket 4.2 05:29:16 16° NNW 05:33:17 53° ENE 05:38:27 10° SE
Cosmos 1238 Rocket 3.9 05:36:21 39° WSW 05:36:21 39° WSW 05:40:35 10° SSW
Meteor 1-25 Rocket 4.2 05:31:39 10° SSW 05:37:27 65° WNW 05:43:15 10° N
COSMOS 2428 4.5 05:41:23 15° NNW 05:41:23 15° NNW 05:43:51 10° N
Meteor 1-13 Rocket 4.3 05:36:18 10° NNW 05:42:18 84° W 05:48:15 10° S
Cosmos 1633 3.3 05:39:12 10° S 05:42:46 54° E 05:46:21 10° NNE
Cosmos 2360 Rocket 4.3 05:44:28 10° NNW 05:44:28 10° NNW 05:44:48 10° NNW
NOAA 6 3.9 05:40:50 10° N 05:45:56 69° WNW 05:51:02 10° SSW
Nadezhda 3 Rocket 4.0 05:39:41 10° N 05:46:05 89° WSW 05:52:28 10° S
Cosmos 2112 Rocket 4.0 05:44:32 22° SW 05:47:47 54° WNW 05:52:54 10° NNE
CENTAUR R/B 2.8 05:47:14 31° W 05:50:13 52° NW 05:57:17 10° NE
CZ-4 R/B 3.5 05:47:04 10° NE 05:50:33 28° E 05:53:59 10° SSE
Meteor 1-28 Rocket 3.1 05:48:13 10° S 05:52:01 79° WSW 05:54:06 26° NNW
CZ-4C R/B 4.0 05:50:10 17° NNW 05:53:23 24° N 05:59:01 10° ENE
Cosmos 1300 Rocket 3.4 05:50:22 10° SSW 05:54:47 80° W 05:59:14 10° N
Lacrosse 5 3.1 05:57:17 10° SSW 06:02:05 42° SE 06:06:53 10° ENE
Cosmos 2237 Rocket 3.3 06:02:08 23° NW 06:02:18 23° NW 06:06:44 10° N
Lacrosse 4 Rocket 2.9 05:59:13 13° NNW 06:02:20 30° NE 06:06:01 10° ESE
Cosmos 839 Rocket 4.5 05:58:39 15° NNW 06:04:37 63° NE 06:10:44 10° SE
Cosmos 1340 3.8 06:01:28 10° N 06:05:08 44° ENE 06:08:46 10° SSE
Cosmos 1536 3.1 06:01:49 10° S 06:05:47 70° E 06:09:47 10° NNE
Cosmos 1900 4.5 06:04:56 19° NNW 06:08:26 73° NE 06:13:21 10° SE
ADEOS II 3.5 06:04:50 10° N 06:07:27 19° NW 06:07:27 19° NW
Cosmos 2341 Rocket 4.1 06:03:58 10° S 06:10:16 85° E 06:16:34 10° N
Cosmos 2074 Rocket 4.3 06:04:25 10° SW 06:10:21 43° WNW 06:16:17 10° N
ATLAS 3B R/B 4.1 06:06:09 15° NW 06:10:32 26° N 06:16:11 10° ENE
Meteor 2-4 Rocket 3.6 06:05:25 10° NNW 06:10:54 81° W 06:16:31 10° S
Cosmos 192 4.3 06:06:55 10° SSW 06:11:50 87° WNW 06:16:47 10° NNE
Cosmos 44 Rocket 3.9 06:08:03 10° SSW 06:13:10 65° SE 06:18:14 10° NE
CSL-04 DEB 4.3 06:09:20 10° N 06:13:20 64° WNW 06:17:23 10° SSW
Radarsat Rocket 4.4 06:06:40 10° NNE 06:13:22 65° WNW 06:20:58 10° SW
CSL-04 Rocket 3.7 06:08:42 10° NNE 06:14:18 86° WNW 06:19:50 10° SSW
CSL-04 Debris 4.2 06:10:18 10° NNE 06:15:48 85° ESE 06:21:17 10° SSW
Cosmos 2184 Rocket 4.5 06:19:54 10° SW 06:25:28 35° WNW 06:31:07 10° N
Cosmos 2056 Rocket 4.3 06:23:15 20° WNW 06:25:41 28° W 06:30:01 10° SSW
Cosmos 2369 Rocket 2.4 06:21:23 14° NW 06:26:13 55° WSW 06:31:46 10° S
SL-24 DEB 4.5 06:22:42 10° SSW 06:27:22 51° W 06:32:04 10° NNW
YAOGAN 3 4.5 06:23:09 10° N 06:27:32 75° WNW 06:31:53 10° SSW
Lacrosse 5 rocket 2.6 06:26:34 19° NW 06:28:45 29° N 06:32:37 10° ENE
Cosmos 1603 3.7 06:23:16 10° SW 06:28:52 57° WNW 06:34:28 10° NNE
Cosmos 1420 Rocket 4.0 06:24:11 10° NNW 06:29:30 87° ENE 06:34:44 10° SSE
Helios 1B rocket 2.4 06:25:56 10° SSE 06:30:05 90° E 06:34:17 10° NNW
SL-23 DEB 3.6 06:28:21 23° W 06:30:07 59° SSW 06:33:41 10° SE
SOZ 4.2 06:32:58 15° SW 06:34:32 60° SSE 06:36:36 10° ENE
Meteor 1-29 2.9 06:34:38 10° SSE 06:38:01 86° ENE 06:41:26 10° NNW
Cosmos 2219 Rocket 4.0 06:39:08 11° NW 06:40:34 12° NNW 06:42:45 10° N
Cosmos 2154 Rocket 4.2 06:34:47 10° SSW 06:40:45 48° WNW 06:46:46 10° N
Ariane Rocket 3.3 06:36:36 10° N 06:41:22 42° WNW 06:46:06 10° SW
ATLAS 5 CENTAUR R/B 3.8 06:38:18 10° NW 06:42:39 23° NNE 06:47:19 10° ENE
Tiangong 2 3.0 06:43:21 10° WSW 06:45:55 23° S 06:48:29 10° SE
YAOGAN 1 2.8 06:41:37 10° NNE 06:45:59 76° ESE 06:50:18 10° S
IDEFIX/ARIANE 42P 2.7 06:41:10 10° NNE 06:46:24 79° ESE 06:51:36 10° S
Cosmos 1975 4.3 06:44:37 10° SSE 06:48:30 42° E 06:52:24 10° NNE
Cosmos 1515 4.2 06:45:21 10° N 06:49:11 61° ENE 06:52:59 10° SSE
Cosmos 1025 Rocket 3.7 06:47:55 10° NNW 06:51:53 33° W 06:55:48 10° SSW
AQUARIUS 4.2 06:47:32 10° NNE 06:52:04 87° W 06:56:34 10° SSW
Cosmos 2333 Rocket 4.0 06:51:30 10° NW 06:53:38 12° NNW 06:55:56 10° N
Cosmos 1943 3.2 06:49:15 10° SW 06:54:51 73° WNW 07:00:33 10° NNE
Abrixas rocket 3.9 06:53:06 10° SW 06:56:12 35° SSE 06:59:18 10° E
Cosmos 1602 Rocket 4.1 06:53:41 10° N 06:58:10 63° ENE 07:02:35 10° SSE
Okean 1 Rocket 4.2 06:59:26 10° WSW 07:02:56 23° WNW 07:06:27 10° NNW
Cosmos 1544 Rocket 3.5 07:03:10 10° SSW 07:07:29 64° WNW 07:11:53 10° N
MOS 1 4.3 07:02:38 10° NNE 07:08:18 78° WNW 07:13:57 10° SSW
USA 215 3.4 07:02:16 10° ENE 07:08:40 60° NNW 07:15:04 10° W
Okean 2 4.2 07:05:19 10° NNW 07:09:06 33° W 07:12:51 10° SSW
SMAP 3.2 07:10:45 10° N 07:15:20 56° WNW 07:19:52 10° SSW
Cosmos 1943 Rocket 2.5 07:10:17 10° NW 07:15:32 46° WSW 07:20:46 10° S
SL-8 Rocket 4.1 07:09:46 10° SSW 07:15:53 54° WNW 07:22:00 10° N
SL-16 R/B 3.7 07:13:00 10° WNW 07:16:35 17° NW 07:20:11 10° N
Meteor 2-19 Rocket 4.5 07:10:40 10° SSW 07:16:44 62° WNW 07:22:47 10° N
